Lapse_Rate
4.7 2.3 2.6 2.2 2.6 3.1 3.5 3.7 3.6 3.5 3.5 4.1 3.6 4.0 5.1 5.7 6.0 6.2 6.2 6.3 6.4 6.5 6.9 7.1 7.2 7.1 7.0
4.8 3.3 3.1 3.1 3.2 2.7 3.0 3.5 3.9 3.2 3.4 3.0 3.5 3.5 4.0 4.8 5.6 5.9 6.2 6.0 5.8 5.8 5.9 6.2 6.6 6.8 7.0
4.2 3.4 1.9 2.3 2.6 2.7 3.1 3.2 3.3 3.8 3.8 4.0 3.5 3.2 3.3 3.9 4.4 4.8 4.9 5.0 5.0 5.0 5.1 5.3 5.6 6.0 6.5
4.2 3.7 3.3 0.9 2.1 1.8 1.4 2.1 2.4 2.9 3.3 3.3 2.6 2.6 2.7 3.0 3.5 3.9 3.9 3.9 3.8 3.7 3.6 4.0 4.5 4.9 5.4
5.0 4.5 2.1 1.5 2.4 1.8 2.9 2.1 1.7 2.5 2.3 2.2 1.9 1.9 2.2 2.1 2.0 2.2 2.6 2.6 2.7 3.1 3.4 3.4 3.6 3.7 4.1
5.9 5.1 4.3 4.5 2.9 3.3 3.0 3.3 3.7 2.9 2.5 2.5 2.6 2.4 2.9 3.4 3.5 3.0 3.3 2.9 2.9 2.7 2.6 2.8 3.2 3.4 3.5
5.6 5.1 5.5 5.0 3.2 3.4 3.2 3.8 3.8 1.9 2.9 2.6 2.1 2.5 3.4 3.7 3.9 3.7 3.5 3.4 3.3 3.0 2.8 2.9 2.9 3.0 2.9
6.5 6.3 5.9 3.8 3.8 3.8 3.6 4.0 3.3 2.5 3.3 3.4 2.7 2.2 3.2 4.0 3.8 3.2 2.9 2.5 2.4 2.3 2.1 2.3 2.6 2.7 2.9
4.1 4.0 3.5 3.4 4.0 4.2 4.3 3.9 3.3 3.4 2.3 2.7 2.6 2.7 2.8 2.3 3.2 2.6 1.3 1.4 1.6 2.0 2.2 2.5 2.6 2.6 2.5
4.5 3.2 3.4 3.4 2.9 5.1 4.2 3.3 0.3 0.7 1.5 1.1 0.3 0.9 0.7 0.0 0.1 1.3 1.7 1.4 1.3 1.8 2.1 2.3 2.7 2.9 3.1
4.4 4.2 4.2 3.4 4.2 4.7 4.4 3.1 0.4 0.4 1.1 -0.1 -1.0 -2.0 0.1 1.0 -0.4 -0.5 -0.3 0.3 0.5 0.8 1.1 1.2 1.6 2.9 3.2
4.2 4.0 3.7 3.6 3.2 2.7 2.3 1.4 1.9 2.3 2.1 0.4 -0.6 -0.2 -0.9 0.4 1.5 -1.2 -1.0 -0.4 -0.0 0.3 0.4 1.0 1.4 2.1 3.4
3.8 3.2 2.2 2.4 -1.0 -2.3 -2.6 -2.3 -2.6 -1.9 0.1 -0.1 -1.1 -1.4 -0.5 0.5 0.9 -0.4 1.0 -0.1 -0.4 -0.4 -0.2 -0.0 -0.3 0.1 1.5
3.2 0.7 -0.8 -0.3 -1.1 -2.1 -1.8 -1.9 -1.4 -1.6 -3.0 -1.8 -1.5 -0.8 -0.2 -0.1 -0.3 0.5 0.3 1.5 -0.2 0.8 0.1 0.1 0.6 0.7 1.3
0.4 0.3 -0.1 -0.5 -1.7 -1.6 -1.2 -1.3 -0.4 -0.6 -1.3 -2.0 -2.2 -1.9 -1.6 -0.7 0.6 0.4 0.6 0.4 0.4 0.7 0.8 1.4 2.5 2.0 2.7
0.7 0.4 -0.0 0.1 -0.7 -1.2 -1.4 -0.5 0.2 -0.5 -0.8 -1.8 -1.7 -1.1 -0.9 -1.1 -1.0 0.3 0.4 0.7 0.4 0.7 1.2 2.1 3.2 2.4 3.3
0.5 0.2 0.2 0.3 0.1 -0.2 -0.3 0.0 0.2 -0.1 -0.7 -1.2 -0.6 0.7 1.2 1.9 -1.2 -1.2 1.1 0.9 1.2 1.5 0.6 0.5 0.3 1.1 2.4
Wind_Speed
5 4 10 9 8 14 13 13 12 17 16 17 15 17 19 19 18 18 19 21 23 24 25 25 27 27 27
5 4 5 11 10 9 7 12 12 14 21 21 19 20 22 23 24 23 24 23 24 23 23 24 25 28 30
4 3 2 5 5 4 7 7 12 13 16 20 20 18 19 20 22 24 26 27 27 28 28 28 26 27 30
5 6 3 2 4 5 3 4 6 7 10 10 11 17 19 19 22 25 26 28 28 25 25 27 29 29 30
6 5 3 3 8 5 7 5 4 3 4 5 8 9 12 21 19 24 28 26 24 24 24 24 25 27 28
10 11 11 9 8 7 8 5 4 8 5 4 9 5 8 13 17 22 21 23 23 23 23 23 23 24 25
15 12 12 12 12 12 10 9 5 4 5 4 5 5 8 11 15 16 17 17 19 19 19 20 21 22 24
14 13 13 13 15 14 13 9 4 3 4 4 4 3 3 7 8 8 11 13 14 15 16 17 19 20 21
14 13 13 16 12 8 8 8 3 3 3 3 1 2 2 2 8 7 4 7 10 11 12 13 15 17 16
13 10 13 14 16 14 11 9 3 1 3 4 3 3 2 0 1 2 1 1 3 6 9 12 14 10 8
11 9 9 8 8 6 9 10 5 2 5 4 2 2 2 1 1 0 1 2 3 4 6 10 12 11 5
11 10 9 9 8 7 6 6 5 4 12 5 4 4 3 2 2 1 1 1 1 2 5 9 11 12 12
12 10 8 7 8 6 7 10 9 7 7 5 3 3 3 2 2 2 1 1 1 1 2 1 3 5 3
11 7 6 7 4 3 3 3 3 3 7 7 7 4 2 2 3 2 2 1 0 1 1 1 3 4 3
10 9 7 6 3 3 3 2 3 4 3 2 7 9 4 3 2 2 2 2 2 2 1 1 3 3 2
10 9 8 7 5 2 2 3 3 3 4 3 4 2 2 4 6 2 2 1 1 2 1 2 3 1 1
6 8 8 7 7 5 5 4 3 3 3 4 4 3 3 3 2 7 2 2 2 1 1 1 1 2 3
Wind_Direction
174 160 186 184 190 201 191 196 203 218 228 234 234 244 242 237 232 228 230 233 234 235 240 240 239 235 236
171 159 174 197 191 189 198 202 209 218 233 235 238 242 245 247 247 247 247 243 242 244 245 247 242 240 240
150 144 156 172 163 174 196 204 211 223 229 235 235 239 239 240 243 245 247 251 254 250 248 247 247 246 245
155 165 165 160 164 167 176 199 202 193 219 217 222 237 239 239 240 244 248 251 253 251 247 247 248 247 249
175 166 156 157 193 183 200 180 212 159 181 200 211 215 225 232 237 245 248 249 251 252 252 251 250 249 251
191 196 191 192 181 186 188 180 196 195 175 208 177 198 209 211 221 232 241 246 250 253 256 257 259 259 257
202 198 192 189 177 184 190 190 192 154 169 190 165 199 208 216 230 239 249 255 261 263 264 267 266 263 261
208 196 203 192 188 189 184 179 86 122 163 168 156 199 168 210 214 237 258 268 272 272 270 269 271 271 269
195 187 186 176 178 162 169 163 138 160 189 124 204 132 115 200 232 234 248 272 276 277 277 276 276 281 281
192 178 178 176 172 175 162 162 119 80 191 146 165 139 317 303 87 114 12 20 327 298 296 298 296 287 277
175 170 171 163 160 160 155 155 141 176 174 125 145 107 128 194 302 197 101 340 323 319 327 316 312 300 289
178 173 170 168 158 140 122 105 112 146 163 136 146 154 150 131 207 357 148 158 11 343 341 326 320 321 286
179 170 163 154 113 89 78 91 79 64 105 136 131 136 135 159 165 185 109 79 60 51 348 1 344 341 323
167 141 126 135 121 120 112 131 108 104 54 90 121 118 124 140 132 145 168 207 121 73 19 304 307 324 4
146 143 128 128 100 113 109 115 115 141 128 70 77 89 69 107 144 143 164 189 123 39 332 305 294 265 267
136 138 134 132 127 118 97 133 133 136 133 133 148 108 106 63 47 147 145 119 100 125 280 276 277 252 308
116 121 124 126 131 130 109 114 113 115 113 140 165 142 136 178 125 48 129 119 129 210 171 251 273 288 317